User: anonymous   Login
Location: Unspecified
(0.0000°N, 0.0000°E)
Time: 19:57:24
(UTC+00:00)
Language:

GONETS M04 - Orbit

View from above orbital plane
View from above orbital plane
View from above satellite
View from above satellite

Ground track
Ground track

The orbit data is extracted from the following two-line orbital elements,

1 38736U 12041D   21026.28126169  .00000002  00000-0 -57690-4 0  9995
2 38736  82.4777 220.2419 0025107  32.6359 327.6284 12.43819883385721
Epoch (UTC): 26 January 2021 06:45:01
Eccentricity: 0.0025107
inclination: 82.4777°
perigee height: 1470 km
apogee height: 1510 km
right ascension of ascending node: 220.2419°
argument of perigee: 32.6359°
revolutions per day: 12.43819883
mean anomaly at epoch: 327.6284°
orbit number at epoch: 38572

The dashed part of the orbit path shows where the satellite is in the earth's shadow,  

DLR